VE3KSR Weather Reports


Display with metric or nautical units.
time (UTC)temp
F
wind
direction
speed
MPH
gust
MPH
rain 1hr
in
rain 24hr
in
rain mn
in
humidity
%
barometer
mb
20141022134640 38 42 12.0 16.0 0.13 0.00 0.00 95 1022.4
20141022134145 38 46 13.0 16.0 0.13 0.00 0.00 95 1022.4
20141022133641 38 66 10.0 13.0 0.13 0.00 0.00 95 1022.5
20141022133142 37 49 11.0 14.0 0.13 0.00 0.00 95 1022.6
20141022132641 37 68 10.0 13.0 0.13 0.00 0.00 95 1022.7
20141022132140 37 23 12.0 15.0 0.13 0.00 0.00 95 1022.7
20141022131640 36 30 13.0 16.0 0.13 0.00 0.00 96 1022.6
20141022131141 36 20 11.0 14.0 0.13 0.00 0.00 96 1022.7
20141022130640 36 45 11.0 13.0 0.13 0.00 0.00 96 1022.5
20141022130141 36 18 11.0 14.0 0.13 0.00 0.00 96 1022.3
20141022125640 36 38 11.0 14.0 0.13 0.00 0.00 95 1022.2
20141022125142 35 44 11.0 14.0 0.13 0.00 0.00 96 1021.9
20141022124640 35 24 11.0 14.0 0.13 0.00 0.00 96 1021.9
20141022124140 35 35 10.0 12.0 0.13 0.00 0.00 95 1021.9
20141022123640 35 4 11.0 13.0 0.13 0.00 0.00 95 1021.8
20141022123141 35 55 13.0 16.0 0.13 0.00 0.00 95 1021.9
20141022122641 35 62 13.0 15.0 0.13 0.00 0.00 96 1021.8
20141022122141 35 17 12.0 14.0 0.13 0.00 0.00 96 1021.8
20141022121641 35 28 12.0 14.0 0.13 0.00 0.00 96 1021.8
20141022121307 35 44 13.0 16.0 0.13 0.00 0.00 96 1021.6
20141022121141 35 42 11.0 13.0 0.13 0.00 0.00 95 1021.9
20141022120640 35 37 12.0 15.0 0.13 0.00 0.00 96 1021.8
20141022120148 35 14 13.0 18.0 0.13 0.00 0.00 95 1021.7
20141022120141 35 14 13.0 18.0 0.13 0.00 0.00 95 1021.7
20141022115640 35 44 13.0 16.0 0.13 0.00 0.00 96 1021.6
20141022115140 35 37 14.0 17.0 0.13 0.00 0.00 96 1021.6
20141022114641 35 42 12.0 14.0 0.13 0.00 0.00 96 1021.6
20141022114141 35 48 12.0 15.0 0.13 0.00 0.00 83 1021.6
20141022113640 35 30 11.0 13.0 0.13 0.00 0.00 96 1021.6
20141022113141 35 42 10.0 12.0 0.13 0.00 0.00 95 1021.6
20141022112641 35 53 11.0 14.0 0.13 0.00 0.00 95 1021.5
20141022112142 35 59 12.0 13.0 0.13 0.00 0.00 95 1021.6
20141022111640 35 63 11.0 13.0 0.13 0.00 0.00 95 1021.5
20141022111140 35 55 12.0 14.0 0.13 0.00 0.00 95 1021.6
20141022110640 35 75 13.0 15.0 0.13 0.00 0.00 95 1021.5
20141022110141 35 60 13.0 15.0 0.13 0.00 0.00 95 1021.4
20141022105640 35 58 13.0 17.0 0.13 0.00 0.00 95 1021.4
20141022105143 35 52 14.0 18.0 0.13 0.00 0.00 95 1021.4
20141022104641 35 51 14.0 17.0 0.13 0.00 0.00 95 1021.2
20141022104141 35 75 14.0 17.0 0.13 0.00 0.00 95 1021.4
20141022103640 36 52 13.0 15.0 0.13 0.00 0.00 95 1021.6
20141022103142 36 60 12.0 15.0 0.13 0.00 0.00 95 1021.4
20141022102640 36 76 12.0 14.0 0.13 0.00 0.00 95 1021.5
20141022102141 36 56 13.0 16.0 0.13 0.00 0.00 95 1021.5
20141022101642 36 58 12.0 16.0 0.13 0.00 0.00 95 1021.5
20141022101141 36 70 13.0 14.0 0.13 0.00 0.00 95 1021.4
20141022100641 36 68 11.0 14.0 0.13 0.00 0.00 95 1021.4
20141022100140 36 94 13.0 16.0 0.13 0.00 0.00 95 1021.4
20141022095641 36 55 12.0 15.0 0.13 0.00 0.00 95 1021.5
20141022095141 36 65 12.0 16.0 0.13 0.00 0.00 95 1021.4
20141022094641 36 56 14.0 17.0 0.13 0.00 0.00 95 1021.4
20141022094142 36 53 14.0 16.0 0.13 0.00 0.00 94 1021.3
20141022093641 37 48 13.0 15.0 0.13 0.00 0.00 94 1021.5
20141022093141 37 46 14.0 17.0 0.13 0.00 0.00 94 1021.4
20141022092641 37 52 15.0 18.0 0.13 0.00 0.00 94 1021.3
20141022092142 37 68 14.0 18.0 0.13 0.00 0.00 95 1021.1
20141022091641 37 55 14.0 17.0 0.13 0.00 0.00 94 1021.0
20141022091142 37 80 12.0 15.0 0.13 0.00 0.00 94 1020.7
20141022090642 37 69 13.0 15.0 0.13 0.00 0.00 94 1020.5
20141022090141 38 45 13.0 16.0 0.13 0.00 0.00 94 1020.5
20141022085641 38 58 13.0 15.0 0.13 0.00 0.00 94 1020.5
20141022085141 38 60 13.0 16.0 0.13 0.00 0.00 94 1020.7
20141022084641 38 53 13.0 15.0 0.13 0.00 0.00 95 1020.4
20141022084145 38 69 14.0 17.0 0.13 0.00 0.00 95 1020.4
20141022083641 38 80 14.0 16.0 0.13 0.00 0.00 95 1020.4
20141022083143 38 59 13.0 16.0 0.13 0.00 0.00 95 1020.4
20141022082641 38 39 12.0 16.0 0.13 0.00 0.00 95 1020.4
20141022082141 38 63 13.0 16.0 0.13 0.00 0.00 95 1020.5
20141022081641 38 77 12.0 15.0 0.13 0.00 0.00 95 1020.7
20141022081141 38 52 11.0 14.0 0.13 0.00 0.00 96 1020.5
20141022080641 38 62 13.0 15.0 0.13 0.00 0.00 96 1020.5
20141022080141 38 60 12.0 14.0 0.13 0.00 0.00 96 1020.7
20141022075641 38 75 12.0 16.0 0.13 0.00 0.00 95 1020.5
20141022075141 38 63 11.0 13.0 0.13 0.00 0.00 96 1020.5
20141022074641 38 49 11.0 13.0 0.13 0.00 0.00 96 1020.5
20141022074141 38 60 12.0 14.0 0.13 0.00 0.00 96 1020.5
20141022073641 38 56 11.0 14.0 0.13 0.00 0.00 96 1020.5
20141022073142 38 75 10.0 13.0 0.13 0.00 0.00 96 1020.3
20141022072641 38 72 10.0 12.0 0.13 0.00 0.00 95 1020.1
20141022072142 38 60 11.0 12.0 0.13 0.00 0.00 95 1019.9
20141022071642 38 68 12.0 13.0 0.13 0.00 0.00 95 1019.9
20141022071142 38 62 11.0 12.0 0.13 0.00 0.00 95 1019.9
20141022070641 38 51 11.0 14.0 0.13 0.00 0.00 95 1019.9
20141022070141 38 56 12.0 14.0 0.13 0.00 0.00 95 1019.9
20141022065641 38 82 12.0 14.0 0.13 0.00 0.00 95 1020.0
20141022065141 38 62 11.0 13.0 0.13 0.00 0.00 96 1019.9
20141022064641 39 62 10.0 14.0 0.13 0.00 0.00 96 1020.0
20141022064142 39 55 12.0 14.0 0.13 0.00 0.00 96 1020.0
20141022063641 39 65 10.0 13.0 0.13 0.00 0.00 96 1020.1
20141022063141 39 70 12.0 14.0 0.13 0.00 0.00 96 1020.2
20141022062641 39 46 12.0 16.0 0.13 0.00 0.00 96 1020.1
20141022062142 39 60 11.0 14.0 0.13 0.00 0.00 96 1020.2
20141022061641 39 69 14.0 17.0 0.13 0.00 0.00 96 1020.2
20141022061141 39 79 13.0 16.0 0.13 0.00 0.00 96 1020.3
20141022060641 39 72 11.0 14.0 0.13 0.00 0.00 96 1020.4
20141022060142 39 70 13.0 14.0 0.13 0.00 0.00 97 1020.5
20141022055641 39 53 11.0 14.0 0.13 0.00 0.00 97 1020.5
20141022055141 39 72 11.0 14.0 0.13 0.00 0.00 97 1020.4
20141022054641 39 83 12.0 14.0 0.13 0.00 0.00 97 1020.4
20141022054142 39 79 12.0 14.0 0.13 0.00 0.00 97 1020.4
20141022053641 39 82 11.0 13.0 0.13 0.00 0.00 97 1020.3
20141022053142 39 77 13.0 15.0 0.13 0.00 0.00 97 1020.0
20141022052641 39 94 14.0 18.0 0.13 0.00 0.00 97 1019.7
20141022052141 39 63 14.0 18.0 0.13 0.00 0.00 97 1019.6
20141022051641 39 76 14.0 18.0 0.13 0.00 0.00 97 1019.6
20141022051142 39 86 13.0 17.0 0.13 0.00 0.00 98 1019.6
20141022050641 39 89 13.0 15.0 0.13 0.00 0.00 98 1019.7
20141022050142 39 68 14.0 17.0 0.13 0.00 0.00 98 1019.8
20141022045641 39 87 15.0 18.0 0.13 0.00 0.00 98 1019.6
20141022045141 39 77 15.0 19.0 0.13 0.00 0.00 98 1019.7
20141022044641 39 101 15.0 19.0 0.13 0.00 0.00 98 1019.9
20141022044143 39 76 16.0 19.0 0.13 0.00 0.00 98 1020.0
20141022043641 39 91 16.0 20.0 0.13 0.00 0.00 98 1019.9
20141022043144 39 77 14.0 16.0 0.13 0.00 0.00 98 1020.1
20141022042642 39 68 13.0 18.0 0.13 0.00 0.00 98 1020.2
20141022042142 39 80 15.0 17.0 0.13 0.00 0.00 98 1020.2
20141022041641 39 79 15.0 17.0 0.13 0.00 0.00 98 1020.3
20141022041141 39 60 17.0 22.0 0.13 0.00 0.00 98 1020.3
20141022040641 39 66 15.0 19.0 0.13 0.00 0.00 98 1020.3
20141022040141 39 79 14.0 20.0 0.13 0.00 0.00 98 1020.3
20141022035641 39 90 19.0 23.0 0.13 0.00 0.00 98 1020.4
20141022035142 39 103 17.0 23.0 0.13 0.00 0.00 98 1020.4
20141022034641 39 58 18.0 23.0 0.13 0.00 0.00 98 1020.8
20141022034141 39 87 19.0 24.0 0.13 0.00 0.00 98 1020.8
20141022033641 39 75 17.0 21.0 0.13 0.00 0.00 98 1020.8
20141022033141 39 84 16.0 20.0 0.13 0.00 0.00 98 1020.8
20141022032641 39 82 18.0 23.0 0.13 0.00 0.00 98 1020.7
20141022032141 39 83 18.0 20.0 0.13 0.00 0.00 98 1020.5
20141022031641 39 73 16.0 19.0 0.13 0.00 0.00 98 1020.4
20141022031141 39 83 16.0 19.0 0.13 0.00 0.00 97 1020.2
20141022030641 39 52 19.0 23.0 0.13 0.00 0.00 97 1019.8
20141022030143 39 65 17.0 22.0 0.13 0.00 0.00 98 1019.8
20141022025641 39 53 15.0 20.0 0.13 0.00 0.00 97 1019.9
20141022025141 39 59 17.0 23.0 0.13 0.00 0.00 96 1019.8
20141022024642 39 72 17.0 21.0 0.13 0.00 0.00 97 1019.9
20141022024141 39 58 19.0 22.0 0.13 0.00 0.00 96 1019.8
20141022023642 39 58 19.0 24.0 0.13 0.00 0.00 97 1019.9
20141022023142 39 73 17.0 20.0 0.13 0.00 0.00 97 1019.9
20141022022642 39 89 17.0 24.0 0.13 0.00 0.00 98 1019.8
20141022022142 39 89 17.0 23.0 0.13 0.00 0.00 98 1019.8
20141022021642 39 55 19.0 25.0 0.13 0.00 0.00 98 1019.9
20141022021142 40 60 20.0 26.0 0.13 0.00 0.00 98 1020.0
20141022020642 40 79 19.0 23.0 0.13 0.00 0.00 98 1019.7
20141022020142 40 68 17.0 21.0 0.13 0.00 0.00 98 1019.9
20141022015643 40 72 19.0 23.0 0.13 0.00 0.00 98 1019.8
20141022015142 40 62 17.0 22.0 0.13 0.00 0.00 98 1019.8
20141022014642 40 89 21.0 26.0 0.13 0.00 0.00 98 1019.5
20141022014142 40 60 22.0 28.0 0.13 0.00 0.00 98 1019.5
20141022013644 40 68 18.0 23.0 0.13 0.00 0.00 98 1019.5
20141022013142 40 94 17.0 20.0 0.13 0.00 0.00 98 1019.2
20141022012642 40 63 19.0 24.0 0.13 0.00 0.00 98 1018.9
20141022012142 40 56 19.0 23.0 0.13 0.00 0.00 98 1018.8
20141022011641 40 59 19.0 24.0 0.13 0.00 0.00 98 1018.6
20141022011142 40 58 20.0 24.0 0.13 0.00 0.00 98 1018.6
20141022010642 40 37 20.0 23.0 0.13 0.00 0.00 98 1018.6
20141022010142 40 60 15.0 19.0 0.13 0.00 0.00 98 1018.6
20141022005642 40 48 14.0 19.0 0.13 0.00 0.00 98 1018.5
20141022005142 40 68 16.0 19.0 0.13 0.00 0.00 98 1018.4
20141022004642 40 46 17.0 21.0 0.13 0.00 0.00 98 1018.3
20141022004142 40 53 18.0 23.0 0.13 0.00 0.00 98 1018.4
20141022003642 40 77 20.0 24.0 0.13 0.00 0.00 98 1018.2
20141022003142 40 87 18.0 22.0 0.13 0.00 0.00 98 1018.2
20141022002642 40 56 19.0 24.0 0.13 0.00 0.00 98 1018.2
20141022002143 40 63 22.0 29.0 0.13 0.00 0.00 98 1018.1
20141022001643 40 62 17.0 21.0 0.13 0.00 0.00 98 1018.1
20141022001142 40 83 20.0 24.0 0.13 0.00 0.00 98 1018.0
20141022000643 40 90 20.0 24.0 0.13 0.00 0.00 98 1017.9
20141022000143 40 62 21.0 26.0 0.13 0.00 0.00 98 1018.1
20141021235644 40 55 19.0 27.0 0.13 0.00 0.00 98 1018.1
20141021235142 40 59 19.0 22.0 0.13 0.00 0.00 98 1018.1
20141021234644 40 59 21.0 26.0 0.13 0.00 0.00 98 1018.1
20141021234144 40 66 21.0 28.0 0.13 0.00 0.00 98 1018.0
20141021233642 40 76 19.0 25.0 0.13 0.00 0.00 98 1018.0
20141021233143 40 82 23.0 28.0 0.13 0.00 0.00 98 1017.7
20141021232642 40 59 21.0 28.0 0.13 0.00 0.00 97 1017.6
20141021232143 40 63 22.0 26.0 0.13 0.00 0.00 97 1017.3
20141021231643 40 42 18.0 24.0 0.13 0.00 0.00 97 1017.0
20141021231143 40 68 17.0 21.0 0.13 0.00 0.00 97 1016.9
20141021230642 40 65 18.0 23.0 0.13 0.00 0.00 97 1016.7
20141021230143 40 79 18.0 23.0 0.13 0.00 0.00 97 1016.6
20141021225643 40 49 15.0 20.0 0.13 0.00 0.00 97 1016.6
20141021225142 40 52 18.0 25.0 0.13 0.00 0.00 97 1016.6
20141021224642 40 53 22.0 27.0 0.13 0.00 0.00 97 1016.5
20141021224143 40 60 20.0 26.0 0.13 0.00 0.00 97 1016.4
20141021223642 40 41 18.0 22.0 0.13 0.00 0.00 97 1016.6
20141021223142 40 42 18.0 21.0 0.13 0.00 0.00 97 1016.6
20141021222643 40 42 17.0 22.0 0.13 0.00 0.00 98 1016.5
20141021222143 40 42 18.0 25.0 0.13 0.00 0.00 98 1016.4
20141021221643 40 70 17.0 20.0 0.13 0.00 0.00 98 1016.5
20141021221143 41 48 16.0 20.0 0.13 0.00 0.00 98 1016.5
20141021220643 41 25 16.0 21.0 0.13 0.00 0.00 98 1016.4
20141021220142 41 60 19.0 23.0 0.13 0.00 0.00 98 1016.2
20141021215643 41 53 18.0 23.0 0.13 0.00 0.00 98 1015.9
20141021215144 41 82 15.0 19.0 0.13 0.00 0.00 98 1015.8
20141021214642 41 49 18.0 22.0 0.13 0.00 0.00 98 1015.6
20141021214144 41 49 18.0 24.0 0.13 0.00 0.00 98 1015.5
20141021213644 41 44 17.0 21.0 0.13 0.00 0.00 98 1015.5
20141021213143 41 41 17.0 21.0 0.13 0.00 0.00 98 1015.5
20141021212642 41 62 20.0 24.0 0.13 0.00 0.00 98 1015.5
20141021212142 41 4 16.0 22.0 0.13 0.00 0.00 98 1015.5
20141021211643 41 55 20.0 24.0 0.13 0.00 0.00 98 1015.6
20141021211142 41 60 20.0 28.0 0.13 0.00 0.00 98 1015.6
20141021210643 41 66 18.0 23.0 0.13 0.00 0.00 97 1015.4
20141021210142 41 45 19.0 22.0 0.13 0.00 0.00 97 1015.4
20141021205643 42 55 19.0 24.0 0.13 0.00 0.00 97 1015.4
20141021205143 42 60 19.0 23.0 0.13 0.00 0.00 97 1015.3
20141021204642 42 41 18.0 22.0 0.13 0.00 0.00 97 1015.2
20141021204143 42 46 21.0 25.0 0.13 0.00 0.00 97 1014.8
20141021203642 42 32 17.0 24.0 0.13 0.00 0.00 97 1014.7
20141021203142 42 53 17.0 20.0 0.13 0.00 0.00 97 1014.4
20141021202642 42 42 20.0 26.0 0.13 0.00 0.00 97 1014.2
20141021202142 42 62 21.0 26.0 0.13 0.00 0.00 97 1014.0
20141021201645 42 59 19.0 26.0 7.81 0.00 0.00 97 1014.0
20141021201642 42 59 19.0 26.0 0.13 0.00 0.00 97 1014.0
20141021201142 42 58 18.0 23.0 0.13 0.00 0.00 97 1014.0
20141021200642 42 44 20.0 28.0 0.13 0.00 0.00 97 1014.0
20141021195142 42 44 19.0 23.0 0.13 0.00 0.00 97 1013.9
20141021194642 42 42 18.0 23.0 0.13 0.00 0.00 97 1014.0
20141021194142 42 68 18.0 24.0 0.13 0.00 0.00 97 1014.0
20141021193642 42 69 19.0 24.0 0.13 0.00 0.00 97 1013.9
20141021193144 42 49 23.0 28.0 0.13 0.00 0.00 97 1013.8
20141021192642 43 31 22.0 27.0 0.13 0.00 0.00 97 1013.5
20141021192143 43 56 20.0 26.0 0.13 0.00 0.00 98 1013.5
20141021191642 43 56 17.0 21.0 0.13 0.00 0.00 98 1013.3
20141021191146 42 80 20.0 26.0 0.13 0.00 0.00 98 1013.0
20141021190643 43 20 19.0 24.0 0.13 0.00 0.00 98 1012.9
20141021190142 42 60 18.0 23.0 0.13 0.00 0.00 98 1012.9
20141021185644 42 60 23.0 29.0 0.13 0.00 0.00 98 1012.9
20141021185144 42 42 23.0 27.0 0.13 0.00 0.00 98 1013.1
20141021184642 42 53 18.0 23.0 0.13 0.00 0.00 98 1013.0
20141021184145 42 39 20.0 24.0 0.13 0.00 0.00 98 1013.0
20141021183645 42 52 25.0 29.0 0.13 0.00 0.00 98 1013.0
20141021183143 43 56 20.0 25.0 0.13 0.00 0.00 98 1012.8
20141021182643 43 46 20.0 24.0 0.13 0.00 0.00 98 1012.7
20141021182143 43 34 18.0 24.0 0.13 0.00 0.00 98 1012.5
20141021181644 43 49 20.0 25.0 0.13 0.00 0.00 98 1012.2
20141021181144 44 39 16.0 20.0 0.13 0.00 0.00 98 1012.0
20141021180648 43 52 17.0 21.0 0.13 0.00 0.00 98 1011.8
20141021180143 43 55 21.0 27.0 0.13 0.00 0.00 98 1011.7
20141021175643 43 86 19.0 24.0 0.13 0.00 0.00 98 1011.7
20141021175143 43 44 21.0 25.0 0.13 0.00 0.00 98 1011.8
20141021174643 43 38 18.0 23.0 0.13 0.00 0.00 98 1011.9
20141021174143 43 42 17.0 22.0 0.13 0.00 0.00 98 1011.8
20141021173643 43 34 18.0 20.0 0.13 0.00 0.00 98 1011.8
20141021173143 43 52 19.0 24.0 0.13 0.00 0.00 98 1011.9
20141021172643 43 32 20.0 24.0 0.13 0.00 0.00 98 1011.9
20141021172143 43 35 18.0 23.0 0.13 0.00 0.00 98 1011.8
20141021171643 43 34 20.0 26.0 0.13 0.00 0.00 99 1011.7
20141021171142 43 44 20.0 27.0 0.13 0.00 0.00 99 1011.6
20141021170643 43 28 22.0 26.0 0.13 0.00 0.00 99 1011.5
20141021170143 43 28 18.0 23.0 0.13 0.00 0.00 99 1011.1
20141021165643 43 35 19.0 25.0 0.13 0.00 0.00 98 1011.0
20141021165147 43 44 24.0 32.0 0.13 0.00 0.00 98 1011.0
20141021165143 43 44 24.0 32.0 0.13 0.00 0.00 98 1011.0
20141021164643 43 15 18.0 27.0 0.13 0.00 0.00 98 1011.2
20141021164144 43 46 18.0 23.0 0.13 0.00 0.00 98 1011.2
20141021163643 43 30 18.0 21.0 0.13 0.00 0.00 98 1011.3
20141021163143 43 46 17.0 20.0 0.13 0.00 0.00 98 1011.2
20141021162644 43 27 19.0 23.0 0.13 0.00 0.00 97 1011.2
20141021162143 43 21 18.0 22.0 0.13 0.00 0.00 97 1011.2
20141021161643 43 35 17.0 21.0 0.13 0.00 0.00 97 1011.1
20141021161143 43 352 16.0 21.0 0.13 0.00 0.00 97 1010.8
20141021160643 43 44 14.0 20.0 0.13 0.00 0.00 96 1010.6
20141021160143 43 1 16.0 18.0 0.13 0.00 0.00 96 1010.5
20141021155649 43 24 18.0 23.0 0.13 0.00 0.00 96 1010.4
20141021155143 43 15 16.0 22.0 0.13 0.00 0.00 96 1010.4
20141021154648 43 347 14.0 18.0 0.13 0.00 0.00 95 1010.5
20141021154143 43 4 14.0 19.0 0.13 0.00 0.00 95 1010.5
20141021153643 43 17 16.0 21.0 0.13 0.00 0.00 95 1010.6
20141021153145 43 340 15.0 20.0 0.13 0.00 0.00 95 1010.6
20141021153143 43 340 15.0 20.0 0.13 0.00 0.00 95 1010.6
20141021152645 43 357 15.0 20.0 0.13 0.00 0.00 95 1010.6
20141021152145 43 352 18.0 21.0 0.13 0.00 0.00 96 1010.6
20141021151644 43 350 19.0 24.0 0.13 0.00 0.00 95 1010.5
20141021151143 43 13 15.0 21.0 0.13 0.00 0.00 95 1010.4
20141021150644 43 353 18.0 24.0 0.13 0.00 0.00 95 1010.2
20141021150143 43 359 16.0 21.0 0.13 0.00 0.00 95 1010.2
20141021145648 43 350 15.0 22.0 0.13 0.00 0.00 95 1010.0
20141021145145 43 13 13.0 19.0 0.13 0.00 0.00 94 1010.0
20141021144646 43 350 15.0 20.0 0.13 0.00 0.00 94 1010.0
20141021144143 43 0 16.0 20.0 0.13 0.00 0.00 94 1010.1
20141021143645 43 333 13.0 19.0 0.13 0.00 0.00 95 1010.3
20141021143143 43 349 15.0 19.0 0.13 0.00 0.00 95 1010.2
20141021142643 43 335 12.0 17.0 0.13 0.00 0.00 94 1010.2
20141021142147 43 359 13.0 17.0 0.13 0.00 0.00 94 1010.3
20141021141648 43 347 13.0 22.0 0.13 0.00 0.00 94 1010.2
20141021141144 43 350 15.0 19.0 0.13 0.00 0.00 94 1010.2
20141021140647 43 1 16.0 18.0 0.13 0.00 0.00 94 1010.0
20141021140144 43 352 14.0 17.0 0.13 0.00 0.00 94 1009.9
20141021135647 43 349 14.0 19.0 0.13 0.00 0.00 93 1009.7
20141021135143 43 349 14.0 20.0 0.13 0.00 0.00 93 1009.7